DW0243 Weather Reports


time (UTC)temp
C
wind
direction
speed
KPH
gust
KPH
rain 1hr
cm
rain 24hr
cm
rain mn
cm
humidity
%
barometer
mb
20260831025229 16 117 0.0 6.4 0.05 0.23 0.15 93 1012.8
20260831022236 16 167 4.8 12.9 0.05 0.23 0.15 93 1012.6
20260831021230 15 132 1.6 11.3 0.08 0.23 0.15 93 1012.8
20260831015232 15 78 0.0 0.0 0.05 0.15 0.10 93 1013.2
20260831014232 15 78 0.0 0.0 0.05 0.15 0.08 93 1013.0
20260831012232 15 78 0.0 3.2 0.08 0.15 0.08 93 1012.9
20260831011232 15 78 0.0 0.0 0.05 0.15 0.05 93 1012.8
20260831010230 15 78 0.0 8.0 0.05 0.15 0.05 93 1013.1
20260831005231 15 184 0.0 4.8 0.05 0.13 0.05 93 1012.9
20260831004230 15 238 0.0 0.0 0.03 0.13 0.03 93 1013.2
20260831003229 15 238 0.0 0.0 0.03 0.13 0.03 93 1013.2
20260831002231 14 238 0.0 0.0 0.00 0.13 0.00 93 1013.4
20260831001232 14 238 0.0 0.0 0.00 0.13 0.00 93 1013.4
20260831000233 14 238 0.0 3.2 0.00 0.13 0.00 93 1013.4
20260830235232 14 238 0.0 0.0 0.00 0.13 0.00 92 1013.3
20260830234232 15 238 0.0 1.6 0.00 0.13 0.00 92 1013.2
20260830233234 15 238 0.0 0.0 0.00 0.13 0.00 92 1013.2
20260830231230 15 238 0.0 0.0 0.00 0.13 0.00 92 1013.2
20260830230231 15 238 0.0 0.0 0.00 0.13 0.00 92 1013.3
20260830225230 14 238 0.0 0.0 0.00 0.13 0.00 92 1013.3
20260830222230 14 238 0.0 0.0 0.00 0.13 0.00 91 1013.6
20260830220230 14 238 0.0 0.0 0.00 0.13 0.00 91 1013.6
20260830215232 14 238 0.0 0.0 0.00 0.13 0.13 90 1013.7
20260830214230 15 238 0.0 0.0 0.00 0.13 0.13 91 1013.7
20260830213230 15 238 0.0 0.0 0.00 0.13 0.13 90 1013.8
20260830212230 15 238 0.0 0.0 0.00 0.13 0.13 90 1013.7
20260830211230 15 238 0.0 0.0 0.00 0.13 0.13 89 1013.8
20260830210232 15 238 0.0 0.0 0.00 0.13 0.13 89 1013.9
20260830205230 15 238 0.0 0.0 0.00 0.13 0.13 88 1013.9
20260830202233 16 238 0.0 0.0 0.00 0.13 0.13 87 1013.9
20260830201230 16 238 0.0 0.0 0.00 0.13 0.13 86 1013.9
20260830200230 16 238 0.0 0.0 0.00 0.13 0.13 86 1014.0
20260830193230 17 238 0.0 0.0 0.00 0.13 0.13 83 1014.1
20260830192230 17 238 0.0 0.0 0.00 0.13 0.13 83 1014.1
20260830191230 17 238 0.0 0.0 0.00 0.13 0.13 82 1014.3
20260830190232 18 238 0.0 1.6 0.00 0.13 0.13 81 1014.2
20260830185230 18 238 0.0 0.0 0.00 0.13 0.13 80 1014.1
20260830183233 19 238 0.0 0.0 0.00 0.13 0.13 77 1013.9
20260830182233 20 238 0.0 0.0 0.00 0.13 0.13 75 1013.9
20260830180233 21 238 0.0 0.0 0.00 0.13 0.13 69 1013.7
20260830175233 21 238 0.0 3.2 0.00 0.13 0.13 68 1013.6
20260830172231 21 238 0.0 4.8 0.00 0.13 0.13 65 1013.7
20260830171231 21 238 0.0 4.8 0.00 0.13 0.13 65 1013.6
20260830170232 22 238 0.0 3.2 0.00 0.13 0.13 65 1013.7
20260830165236 22 238 0.0 4.8 0.00 0.13 0.13 64 1013.5
20260830164231 22 238 0.0 8.0 0.00 0.13 0.13 62 1013.5
20260830163232 22 238 4.8 19.3 0.00 0.13 0.13 60 1013.5
20260830162234 22 197 1.6 9.7 0.00 0.13 0.13 61 1013.5
20260830161231 22 202 4.8 16.1 0.00 0.13 0.13 61 1013.5
20260830160233 22 259 4.8 14.5 0.00 0.13 0.13 60 1013.5
20260830155230 23 221 1.6 14.5 0.00 0.13 0.13 61 1013.5
20260830154230 23 281 6.4 14.5 0.00 0.13 0.13 61 1013.6
20260830153232 23 268 1.6 16.1 0.00 0.13 0.13 60 1013.7
20260830152231 23 263 6.4 12.9 0.00 0.13 0.13 59 1013.9
20260830151230 23 240 4.8 16.1 0.00 0.13 0.13 52 1013.8
20260830150230 23 254 6.4 19.3 0.00 0.13 0.13 58 1013.8
20260830144231 23 234 6.4 17.7 0.00 0.13 0.13 58 1013.8
20260830143233 23 201 3.2 17.7 0.00 0.13 0.13 59 1013.8
20260830142230 23 259 9.7 22.5 0.00 0.13 0.13 60 1013.9
20260830141233 23 250 0.0 14.5 0.00 0.13 0.13 60 1013.9
20260830140233 23 225 1.6 20.9 0.00 0.13 0.13 52 1013.9
20260830132232 24 234 9.7 17.7 0.00 0.13 0.13 56 1013.9
20260830131231 23 176 8.0 25.7 0.00 0.13 0.13 58 1014.0
20260830125231 23 178 8.0 24.1 0.00 0.13 0.13 59 1013.9
20260830124230 23 258 6.4 19.3 0.00 0.13 0.13 61 1014.1
20260830123234 23 227 4.8 24.1 0.00 0.13 0.13 62 1014.0
20260830120231 21 247 6.4 19.3 0.00 0.13 0.13 65 1014.1
20260830115229 22 245 3.2 16.1 0.00 0.13 0.13 63 1014.0
20260830114230 22 161 6.4 17.7 0.00 0.13 0.13 56 1014.0
20260830113232 22 145 6.4 20.9 0.00 0.13 0.13 63 1014.1
20260830112236 22 229 6.4 17.7 0.00 0.13 0.13 62 1014.0
20260830111230 22 269 3.2 19.3 0.00 0.13 0.13 55 1014.2
20260830110230 22 260 11.3 19.3 0.00 0.13 0.13 61 1014.1
20260830105230 22 269 9.7 22.5 0.00 0.13 0.13 63 1014.1
20260830104229 21 238 6.4 20.9 0.00 0.13 0.13 65 1014.1
20260830103233 21 267 9.7 19.3 0.00 0.13 0.13 66 1014.1
20260830102234 21 242 8.0 19.3 0.00 0.13 0.13 67 1014.2
20260830101230 21 261 4.8 19.3 0.00 0.13 0.13 69 1014.1
20260830100231 21 173 14.5 30.6 0.00 0.13 0.13 70 1014.1
20260830094231 20 212 4.8 12.9 0.00 0.13 0.13 75 1014.3
20260830092231 20 196 8.0 20.9 0.00 0.13 0.13 73 1014.0
20260830091231 20 239 6.4 19.3 0.00 0.13 0.13 74 1014.0
20260830090230 20 233 6.4 20.9 0.00 0.13 0.13 73 1013.9
20260830085232 20 263 9.7 22.5 0.00 0.13 0.13 69 1013.8
20260830084232 19 243 6.4 19.3 0.00 0.13 0.13 79 1013.8
20260830083231 19 251 8.0 19.3 0.00 0.13 0.13 79 1013.9
20260830082230 20 260 12.9 19.3 0.00 0.13 0.13 79 1013.8
20260830081230 19 174 3.2 11.3 0.00 0.13 0.13 82 1013.8
20260830080231 18 261 9.7 19.3 0.00 0.13 0.13 83 1013.8
20260830075232 18 257 4.8 16.1 0.00 0.13 0.13 86 1013.7
20260830074231 18 200 9.7 14.5 0.00 0.13 0.13 87 1013.6
20260830073233 18 267 0.0 11.3 0.00 0.13 0.13 89 1013.5
20260830071234 18 223 3.2 8.0 0.03 0.13 0.13 92 1013.2
20260830070231 18 188 0.0 1.6 0.03 0.13 0.13 93 1013.2
20260830065232 17 188 0.0 0.0 0.03 0.10 0.13 93 1013.1
20260830064232 17 188 0.0 0.0 0.03 0.10 0.13 93 1013.1
20260830063231 17 188 0.0 0.0 0.03 0.10 0.13 93 1012.9
20260830062229 17 188 0.0 4.8 0.03 0.10 0.13 93 1012.7
20260830061230 17 188 0.0 1.6 0.00 0.10 0.10 93 1012.6
20260830060232 17 189 0.0 4.8 0.08 0.10 0.10 93 1012.6
20260830055232 17 189 0.0 4.8 0.08 0.03 0.10 93 1012.3
20260830054233 17 189 0.0 6.4 0.08 0.03 0.10 93 1012.4
20260830053231 17 211 0.0 6.4 0.08 0.03 0.10 93 1012.4
20260830052231 17 232 3.2 9.7 0.08 0.03 0.10 93 1012.3
20260830051232 17 275 3.2 12.9 0.08 0.03 0.10 92 1012.4
20260830050233 17 260 6.4 12.9 0.00 0.03 0.03 92 1012.3
20260830043230 17 223 1.6 8.0 0.00 0.03 0.03 92 1011.8
20260830042236 17 182 1.6 9.7 0.00 0.03 0.03 92 1011.8
20260830040232 17 228 0.0 6.4 0.00 0.03 0.03 93 1011.7
20260830035230 17 227 0.0 0.0 0.03 0.03 0.03 93 1011.8
20260830034232 17 227 0.0 0.0 0.03 0.03 0.03 93 1011.7
20260830033233 17 227 0.0 0.0 0.03 0.03 0.03 93 1011.8
20260830032233 17 227 0.0 1.6 0.03 0.03 0.03 92 1011.8
20260830031231 17 227 0.0 0.0 0.03 0.03 0.03 92 1011.8
20260830030234 17 227 0.0 9.7 0.03 0.03 0.03 91 1011.8